[[{"header":{"parameterUnit":"m.s-1","parameterCategory":1,"la1":30.2991,"la2":30.254,"lo1":-89.0895,"lo2":-89.0444,"dy":0.0017,"dx":0.0017,"nx":28,"ny":28,"refTime":"2023-03-21T21:00:00:Z","depth":0,"parameterNumber":2,"parameterNumberName":"U-component_of_WINDS"},"data":[0,0,0,0,0,0,0,0,0,0,0,0,0,0,0,0,0,0,0,0,0,0,0,0,0,0,0,0,0,0,0,0,0,0,0,0,0,0,0,0,0,0,0,0,0,0,0,0,0,0,0,0,0,0,0,0,0,0,-1.4876,-1.4876,0,-1.4854,-1.4854,-1.4854,-1.4846,-1.4846,-1.4846,-1.4846,-1.4823,-1.4822,-1.4822,0,0,0,0,0,0,0,0,0,0,0,0,0,-1.4912,-1.4911,-1.4876,-1.4876,-1.4876,-1.4854,-1.4854,-1.4854,-1.4846,-1.4846,-1.4846,-1.4846,-1.4823,-1.4823,-1.4822,0,0,0,0,0,0,0,0,0,0,0,0,0,-1.4894,-1.4911,-1.4876,-1.4869,-1.4869,-1.4854,-1.4854,-1.4854,-1.4846,-1.4846,-1.4846,-1.4847,-1.4824,-1.4823,-1.4822,-1.4813,0,0,-1.4818,-1.4818,0,0,0,0,0,0,0,0,-1.4895,-1.4892,-1.4871,-1.487,-1.4869,-1.4853,-1.4858,-1.484,-1.4846,-1.4855,-1.4846,-1.4847,-1.4833,-1.4831,-1.4827,-1.4811,-1.481,-1.4818,-1.4818,-1.4817,-1.4817,0,0,0,0,0,0,0,-1.4896,-1.4893,-1.4868,-1.487,-1.4869,-1.4867,-1.4865,-1.4854,-1.4843,-1.4854,-1.4853,-1.4851,-1.4832,-1.4828,-1.4826,-1.481,-1.4818,-1.4817,-1.4817,-1.4816,-1.4787,-1.4787,0,0,0,0,0,0,-1.4898,-1.4894,-1.4868,-1.4867,-1.4882,-1.4867,-1.4864,-1.4858,-1.4843,-1.4841,-1.4851,-1.4851,-1.4829,-1.4827,-1.4825,-1.4814,-1.4817,-1.4816,-1.4816,-1.4787,-1.4787,-1.4787,0,0,0,0,0,0,-1.4899,-1.4896,-1.4869,-1.488,-1.4877,-1.4866,-1.4859,-1.4858,-1.4853,-1.4841,-1.4839,-1.4848,-1.483,-1.4827,-1.4816,-1.4813,-1.4816,-1.4815,-1.4787,-1.4787,-1.4787,-1.4791,0,0,0,0,0,0,-1.49,-1.4896,-1.4893,-1.488,-1.4876,-1.486,-1.4859,-1.4857,-1.4851,-1.4851,-1.4838,-1.4836,-1.4829,-1.4818,-1.4815,-1.4812,-1.4814,-1.4788,-1.4787,-1.4787,-1.4791,-1.4791,-1.4791,0,0,0,0,0,-1.4901,-1.4895,-1.4893,-1.4889,-1.4872,-1.486,-1.4858,-1.4851,-1.4851,-1.4847,-1.484,-1.4836,-1.4814,-1.4817,-1.4813,-1.481,-1.4788,-1.4787,-1.4787,-1.4791,-1.4791,-1.4791,0,0,0,0,0,0,-1.4906,-1.4893,-1.489,-1.4879,-1.4871,-1.4859,-1.4854,-1.4851,-1.4842,-1.4842,-1.4833,-1.483,-1.482,-1.4814,-1.4817,-1.4801,-1.4801,-1.48,-1.4805,-1.4805,-1.4805,-1.4806,-1.4813,0,0,0,0,0,-1.4906,-1.4898,-1.4887,-1.4878,-1.4874,-1.4865,-1.4859,-1.4855,-1.4846,-1.4842,-1.4834,-1.4825,-1.4816,-1.481,-1.4801,-1.4791,-1.4788,-1.4787,-1.4787,-1.4787,-1.4786,-1.4781,-1.478,-1.4786,-1.4786,-1.4786,0,0,-1.4906,-1.4897,-1.4893,-1.4879,-1.4872,-1.4864,-1.4862,-1.4853,-1.4847,-1.4841,-1.483,-1.4824,-1.4813,-1.4803,-1.4798,-1.4797,-1.4784,-1.4786,-1.4786,-1.4786,-1.478,-1.478,-1.4779,-1.4786,-1.4786,-1.4786,0,0,-1.49,-1.4893,-1.4886,-1.4879,-1.4868,-1.4862,-1.4861,-1.4849,-1.4845,-1.4834,-1.483,-1.4822,-1.4807,-1.48,-1.4794,-1.4788,-1.4784,-1.4785,-1.4785,-1.4779,-1.4779,-1.4778,-1.4776,-1.4776,-1.4785,-1.4785,-1.4785,0,-1.4901,-1.4889,-1.4882,-1.4874,-1.4868,-1.4863,-1.4855,-1.4848,-1.4836,-1.4832,-1.4832,-1.4813,-1.4805,-1.4793,-1.4792,-1.4788,-1.4785,-1.4786,-1.478,-1.4779,-1.4779,-1.4776,-1.4776,-1.4785,-1.4785,-1.4785,-1.4785,0,-1.489,-1.4882,-1.4877,-1.4865,-1.4859,-1.485,-1.4843,-1.4837,-1.4834,-1.4828,-1.4817,-1.4808,-1.4798,-1.4795,-1.4791,-1.4783,-1.4783,-1.4781,-1.4781,-1.4778,-1.4776,-1.4775,-1.4785,-1.4785,-1.4785,-1.4785,0,0,-1.4886,-1.4872,-1.487,-1.4865,-1.4854,-1.4847,-1.4839,-1.4829,-1.4825,-1.4816,-1.481,-1.4797,-1.4796,-1.479,-1.4785,-1.4781,-1.4777,-1.478,-1.4779,-1.478,-1.4767,-1.4768,-1.4768,-1.4775,-1.4774,-1.4774,-1.4768,0,-1.488,-1.4865,-1.486,-1.4848,-1.484,-1.4836,-1.4829,-1.4821,-1.4816,-1.4808,-1.4803,-1.4794,-1.4793,-1.4789,-1.4785,-1.4778,-1.4774,-1.4778,-1.4768,-1.4768,-1.4771,-1.4766,-1.4767,-1.4762,-1.4767,-1.4767,-1.4767,0,-1.487,-1.4862,-1.485,-1.484,-1.4836,-1.483,-1.4821,-1.4814,-1.4806,-1.4802,-1.4796,-1.4792,-1.4784,-1.4784,-1.4773,-1.4776,-1.4772,-1.4768,-1.4768,-1.4766,-1.4767,-1.4765,-1.476,-1.4759,-1.4766,-1.4766,-1.4766,0,-1.4868,-1.4855,-1.4846,-1.4842,-1.483,-1.4826,-1.4821,-1.4813,-1.4807,-1.4799,-1.4796,-1.4787,-1.4782,-1.4776,-1.477,-1.4771,-1.4759,-1.4759,-1.4756,-1.4756,-1.4753,-1.4753,-1.4748,-1.4751,-1.4751,-1.4751,-1.4751,0,-1.4861,-1.4854,-1.4845,-1.484,-1.4831,-1.4825,-1.4817,-1.4812,-1.4805,-1.4798,-1.4794,-1.4788,-1.478,-1.4773,-1.4768,-1.476,-1.4758,-1.4755,-1.4753,-1.4755,-1.4755,-1.4752,-1.4752,-1.4751,-1.4751,-1.4751,-1.4751,0,-1.4858,-1.4852,-1.4842,-1.4832,-1.483,-1.4824,-1.4816,-1.481,-1.4805,-1.4797,-1.4795,-1.4787,-1.4778,-1.4772,-1.4761,-1.4758,-1.4749,-1.4747,-1.4752,-1.4751,-1.4748,-1.4749,-1.474,-1.4738,-1.4743,-1.4742,-1.4742,0,-1.4854,-1.4849,-1.4838,-1.4834,-1.4829,-1.4822,-1.4816,-1.481,-1.4805,-1.4796,-1.4791,-1.4783,-1.4776,-1.4763,-1.4756,-1.4748,-1.4746,-1.4744,-1.4745,-1.4747,-1.4746,-1.4747,-1.4746,-1.4744,-1.4744,-1.4744,-1.4744,0,-1.4847,-1.4845,-1.4838,-1.4829,-1.4824,-1.4817,-1.481,-1.4806,-1.4799,-1.4794,-1.4785,-1.478,-1.4769,-1.4761,-1.4752,-1.4747,-1.4744,-1.4743,-1.4742,-1.4744,-1.4746,-1.4745,-1.4751,-1.4743,-1.4743,-1.4743,-1.4744,-1.4744,-1.4844,-1.4839,-1.4831,-1.4823,-1.4818,-1.4811,-1.4806,-1.4801,-1.4794,-1.4785,-1.4782,-1.4773,-1.4766,-1.4754,-1.4749,-1.4742,-1.4742,-1.474,-1.474,-1.4739,-1.474,-1.4748,-1.4741,-1.4741,-1.4741,-1.4741,-1.4741,0,-1.4837,-1.4832,-1.4825,-1.4816,-1.481,-1.4808,-1.48,-1.4796,-1.4788,-1.4782,-1.4775,-1.4766,-1.4758,-1.4751,-1.4743,-1.4739,-1.4738,-1.4738,-1.4738,-1.4737,-1.474,-1.4742,-1.4739,-1.4739,-1.4739,-1.4739,-1.4739,-1.4739,-1.4832,-1.4824,-1.4821,-1.481,-1.4805,-1.4796,-1.4792,-1.4787,-1.4782,-1.4772,-1.4766,-1.4761,-1.4755,-1.4746,-1.4739,-1.4737,-1.4735,-1.4735,-1.4733,-1.4736,-1.4736,-1.4736,-1.4738,-1.4734,-1.4734,-1.4729,-1.4729,-1.4729]},{"header":{"parameterUnit":"m.s-1","parameterCategory":1,"la1":30.2991,"la2":30.254,"lo1":-89.0895,"lo2":-89.0444,"dy":0.0017,"dx":0.0017,"nx":28,"ny":28,"refTime":"2023-03-21T21:00:00:Z","depth":0,"parameterNumber":3,"parameterNumberName":"V-component_of_WINDS"},"data":[0,0,0,0,0,0,0,0,0,0,0,0,0,0,0,0,0,0,0,0,0,0,0,0,0,0,0,0,0,0,0,0,0,0,0,0,0,0,0,0,0,0,0,0,0,0,0,0,0,0,0,0,0,0,0,0,0,0,3.1122,3.1121,0,3.1011,3.101,3.1009,3.1002,3.1003,3.1004,3.1005,3.0887,3.0882,3.0878,0,0,0,0,0,0,0,0,0,0,0,0,0,3.1324,3.1321,3.1122,3.1121,3.112,3.1011,3.101,3.1008,3.1002,3.1003,3.1005,3.1006,3.0888,3.0883,3.0878,0,0,0,0,0,0,0,0,0,0,0,0,0,3.1227,3.1319,3.1123,3.1103,3.11,3.1012,3.101,3.1008,3.1001,3.1003,3.1005,3.1007,3.089,3.0883,3.0877,3.0799,0,0,3.0857,3.0854,0,0,0,0,0,0,0,0,3.1233,3.122,3.1107,3.1104,3.1101,3.1022,3.1038,3.0938,3.1001,3.1039,3.1006,3.1008,3.093,3.092,3.0895,3.0793,3.0788,3.0857,3.0853,3.085,3.0848,0,0,0,0,0,0,0,3.1239,3.1224,3.1078,3.1106,3.1102,3.1099,3.1087,3.1019,3.0975,3.1036,3.1035,3.1022,3.0929,3.0901,3.0892,3.0786,3.0857,3.0851,3.0847,3.0844,3.0615,3.0613,0,0,0,0,0,0,3.1251,3.123,3.1082,3.1075,3.1173,3.1094,3.1081,3.1046,3.0976,3.0967,3.102,3.1022,3.0912,3.09,3.0888,3.0793,3.085,3.0844,3.084,3.0617,3.0615,3.0612,0,0,0,0,0,0,3.1255,3.1237,3.1086,3.1152,3.1133,3.1088,3.1049,3.1042,3.1015,3.0964,3.0956,3.1001,3.0913,3.0897,3.0822,3.0788,3.0841,3.0835,3.062,3.0617,3.0614,3.0601,0,0,0,0,0,0,3.1261,3.1239,3.121,3.1152,3.1129,3.1023,3.1047,3.1039,3.1005,3.1006,3.0944,3.0935,3.0913,3.0831,3.0815,3.078,3.083,3.0623,3.0619,3.0615,3.0604,3.0597,3.0592,0,0,0,0,0,3.1268,3.1209,3.1208,3.119,3.1092,3.1021,3.1008,3.0985,3.1002,3.0972,3.0939,3.0937,3.0795,3.0824,3.0805,3.0768,3.0625,3.062,3.0615,3.0607,3.0599,3.0592,0,0,0,0,0,0,3.1262,3.1201,3.1199,3.112,3.1076,3.102,3.0981,3.0977,3.0926,3.0928,3.09,3.0886,3.0812,3.0782,3.0815,3.0689,3.0711,3.0703,3.0711,3.0703,3.0698,3.0706,3.0824,0,0,0,0,0,3.1252,3.1201,3.1149,3.1084,3.1063,3.1026,3.0994,3.098,3.0932,3.0913,3.0875,3.0827,3.0772,3.0736,3.0682,3.0599,3.0586,3.0565,3.0559,3.0554,3.0547,3.0502,3.0492,3.0596,3.0596,3.0597,0,0,3.1229,3.119,3.1159,3.1082,3.1047,3.0993,3.101,3.0952,3.0912,3.0904,3.0831,3.0801,3.0746,3.0667,3.063,3.064,3.0515,3.0548,3.0545,3.054,3.0496,3.0486,3.0478,3.0593,3.0594,3.0594,0,0,3.1162,3.1127,3.107,3.1034,3.098,3.0956,3.0943,3.0887,3.0868,3.0795,3.0788,3.0739,3.0643,3.0605,3.0573,3.0493,3.0489,3.0476,3.0444,3.0401,3.0393,3.0385,3.0357,3.0348,3.0468,3.0468,3.0468,0,3.1141,3.1062,3.104,3.0984,3.095,3.0942,3.0884,3.0849,3.078,3.0756,3.0769,3.065,3.0613,3.0525,3.0506,3.048,3.0463,3.0483,3.0396,3.0388,3.0381,3.0354,3.0343,3.0467,3.0467,3.0467,3.0468,0,3.1039,3.0984,3.0944,3.088,3.0842,3.0784,3.0753,3.0717,3.0706,3.0681,3.0606,3.0561,3.0499,3.0477,3.0465,3.0387,3.0396,3.0402,3.0424,3.037,3.0345,3.0334,3.0465,3.0466,3.0466,3.0467,0,0,3.0964,3.089,3.0876,3.0847,3.0788,3.0744,3.0686,3.0627,3.0597,3.0549,3.05,3.042,3.0427,3.039,3.0374,3.0336,3.0277,3.0347,3.0346,3.0337,3.0189,3.0186,3.0174,3.0274,3.0272,3.027,3.0194,0,3.0891,3.079,3.0769,3.0681,3.0631,3.0623,3.0572,3.053,3.0504,3.0456,3.0428,3.0372,3.0384,3.0363,3.0324,3.0292,3.0247,3.0297,3.0227,3.0225,3.0242,3.016,3.0156,3.0086,3.0184,3.0182,3.0181,0,3.0792,3.0745,3.0653,3.0602,3.0579,3.0535,3.0479,3.0434,3.0385,3.037,3.033,3.0318,3.0257,3.0282,3.0197,3.0232,3.0202,3.0181,3.0178,3.0171,3.02,3.0152,3.0064,3.0054,3.0165,3.0166,3.0167,0,3.0749,3.0661,3.0595,3.0571,3.0509,3.0478,3.045,3.0404,3.037,3.0321,3.0299,3.0242,3.0211,3.0168,3.0141,3.0161,3.0058,3.008,3.0043,3.0044,3.0022,3.0024,2.9929,3.0001,3.0001,3.0002,3.0002,0,3.067,3.0614,3.0575,3.0535,3.0472,3.0448,3.0385,3.0358,3.0317,3.027,3.0258,3.0214,3.0181,3.0132,3.0111,3.0044,3.003,3.0015,3.001,3.0016,3.0019,2.9997,3.0001,2.9999,2.9999,3.0,3.0,0,3.061,3.0582,3.051,3.0458,3.0444,3.04,3.0355,3.0315,3.029,3.023,3.0215,3.0175,3.0117,3.0086,3.0012,2.9998,2.9924,2.9921,2.9941,2.9939,2.9903,2.9908,2.9792,2.9775,2.9858,2.9857,2.9857,0,3.0562,3.052,3.0464,3.0433,3.0405,3.0355,3.0321,3.0295,3.026,3.0203,3.0169,3.0111,3.0063,2.9971,2.9934,2.9878,2.9874,2.9838,2.9866,2.9874,2.9875,2.9879,2.9874,2.9833,2.9832,2.9832,2.9831,0,3.0481,3.0469,3.0422,3.037,3.033,3.0287,3.0244,3.0219,3.0186,3.0147,3.0089,3.0052,2.9979,2.9921,2.9862,2.9832,2.9826,2.9822,2.9811,2.9818,2.9832,2.9825,2.9928,2.9825,2.9826,2.9826,2.9827,2.9827,3.0426,3.0388,3.0344,3.0291,3.0257,3.0218,3.0178,3.0149,3.0101,3.004,3.0028,2.9966,2.9919,2.984,2.9809,2.9759,2.9767,2.975,2.9746,2.9742,2.9741,2.9839,2.9748,2.9748,2.9748,2.9749,2.9749,0,3.0345,3.0316,3.0268,3.0211,3.0169,3.0169,3.0122,3.0087,3.0034,2.9991,2.9945,2.9878,2.9823,2.9782,2.9725,2.9694,2.9689,2.9679,2.9682,2.9675,2.9737,2.9754,2.9684,2.9684,2.9684,2.9684,2.9684,2.9684,3.0298,3.0234,3.0218,3.0137,3.0108,3.005,3.0023,2.9987,2.9953,2.988,2.9834,2.9809,2.9767,2.9707,2.9656,2.9645,2.9625,2.9616,2.9605,2.9664,2.9671,2.9677,2.9693,2.9611,2.9611,2.9547,2.9546,2.9546]}]]